[[{"header":{"parameterUnit":"m.s-1","parameterCategory":1,"la1":30.2991,"la2":30.254,"lo1":-89.0895,"lo2":-89.0444,"dy":0.0017,"dx":0.0017,"nx":28,"ny":28,"refTime":"2025-11-15T09:00:00:Z","depth":0,"parameterNumber":2,"parameterNumberName":"U-component_of_WINDS"},"data":[0,0,0,0,0,0,0,0,0,0,0,0,0,0,0,0,0,0,0,0,0,0,0,0,0,0,0,0,0,0,0,0,0,0,0,0,0,0,0,0,0,0,0,0,0,0,0,0,0,0,0,0,0,0,0,0,0,0,-0.6743,-0.6743,0,-0.6754,-0.6754,-0.6754,-0.6774,-0.6774,-0.6775,-0.6775,-0.6784,-0.6784,-0.6784,0,0,0,0,0,0,0,0,0,0,0,0,0,-0.6739,-0.6739,-0.6743,-0.6743,-0.6744,-0.6754,-0.6754,-0.6754,-0.6774,-0.6774,-0.6775,-0.6775,-0.6784,-0.6784,-0.6784,0,0,0,0,0,0,0,0,0,0,0,0,0,-0.6744,-0.6739,-0.6743,-0.6755,-0.6756,-0.6754,-0.6754,-0.6754,-0.6774,-0.6774,-0.6775,-0.6775,-0.6784,-0.6784,-0.6784,-0.6771,0,0,-0.6783,-0.6783,0,0,0,0,0,0,0,0,-0.6744,-0.6745,-0.6753,-0.6754,-0.6755,-0.6763,-0.6756,-0.676,-0.6773,-0.6767,-0.6775,-0.6776,-0.6777,-0.6777,-0.6778,-0.6771,-0.6772,-0.6783,-0.6783,-0.6783,-0.6783,0,0,0,0,0,0,0,-0.6744,-0.6744,-0.6747,-0.6753,-0.6754,-0.6759,-0.676,-0.6757,-0.6768,-0.6767,-0.6769,-0.677,-0.6777,-0.6778,-0.6778,-0.6772,-0.6783,-0.6783,-0.6783,-0.6783,-0.6755,-0.6754,0,0,0,0,0,0,-0.6742,-0.6744,-0.6747,-0.6748,-0.6751,-0.6758,-0.676,-0.676,-0.6768,-0.677,-0.6769,-0.6771,-0.6778,-0.6778,-0.6778,-0.6763,-0.6783,-0.6783,-0.6783,-0.6755,-0.6755,-0.6754,0,0,0,0,0,0,-0.6742,-0.6742,-0.6747,-0.6746,-0.6747,-0.6758,-0.6758,-0.676,-0.676,-0.677,-0.6772,-0.6768,-0.6778,-0.6779,-0.6773,-0.6764,-0.6783,-0.6783,-0.6756,-0.6755,-0.6754,-0.6733,0,0,0,0,0,0,-0.6741,-0.6742,-0.6737,-0.6746,-0.6747,-0.6741,-0.6757,-0.676,-0.676,-0.6762,-0.6769,-0.6771,-0.6779,-0.6773,-0.6772,-0.6764,-0.6783,-0.6757,-0.6756,-0.6755,-0.6734,-0.6731,-0.6728,0,0,0,0,0,-0.6741,-0.6731,-0.6737,-0.6737,-0.6742,-0.674,-0.6741,-0.6751,-0.6759,-0.6755,-0.6761,-0.677,-0.6765,-0.6772,-0.6772,-0.6763,-0.6758,-0.6756,-0.6755,-0.6736,-0.6732,-0.6729,0,0,0,0,0,0,-0.6721,-0.6732,-0.6739,-0.6731,-0.6735,-0.6744,-0.6738,-0.6747,-0.6748,-0.6749,-0.6761,-0.6763,-0.6755,-0.6759,-0.6766,-0.675,-0.6763,-0.6761,-0.6748,-0.6745,-0.6742,-0.6741,-0.6782,0,0,0,0,0,-0.6715,-0.6714,-0.6724,-0.6716,-0.6717,-0.6727,-0.6727,-0.6735,-0.6738,-0.674,-0.6746,-0.6749,-0.6748,-0.6747,-0.6746,-0.6735,-0.6736,-0.6729,-0.6726,-0.6724,-0.6722,-0.6715,-0.6712,-0.6749,-0.6749,-0.6749,0,0,-0.6704,-0.671,-0.6708,-0.6712,-0.6715,-0.6713,-0.6728,-0.6725,-0.6723,-0.6739,-0.6734,-0.6738,-0.6742,-0.6733,-0.673,-0.6736,-0.6712,-0.6722,-0.672,-0.6719,-0.6713,-0.671,-0.6707,-0.6748,-0.6748,-0.6749,0,0,-0.6681,-0.6686,-0.668,-0.6683,-0.6688,-0.6695,-0.6694,-0.6701,-0.6705,-0.67,-0.6711,-0.6709,-0.6707,-0.671,-0.671,-0.6689,-0.6697,-0.6688,-0.6673,-0.6666,-0.6663,-0.6661,-0.6652,-0.6648,-0.6687,-0.6687,-0.6687,0,-0.6666,-0.6663,-0.6675,-0.6671,-0.6672,-0.6687,-0.668,-0.6682,-0.6687,-0.6687,-0.6694,-0.6692,-0.6696,-0.6687,-0.6682,-0.6682,-0.668,-0.6687,-0.6663,-0.666,-0.6658,-0.665,-0.6646,-0.6685,-0.6686,-0.6686,-0.6686,0,-0.6644,-0.6642,-0.6636,-0.664,-0.664,-0.6635,-0.6645,-0.6644,-0.6651,-0.6657,-0.6651,-0.6657,-0.6657,-0.6656,-0.6663,-0.6648,-0.6652,-0.6661,-0.6673,-0.6653,-0.6645,-0.6642,-0.6684,-0.6684,-0.6684,-0.6685,0,0,-0.6608,-0.6619,-0.6617,-0.6619,-0.6626,-0.6624,-0.6619,-0.662,-0.6618,-0.6621,-0.6616,-0.6614,-0.6622,-0.6623,-0.6631,-0.6625,-0.6606,-0.6635,-0.6635,-0.6628,-0.6589,-0.6581,-0.6577,-0.6613,-0.6612,-0.6612,-0.6588,0,-0.6587,-0.6579,-0.6589,-0.6579,-0.6576,-0.659,-0.6586,-0.6589,-0.6594,-0.6593,-0.6599,-0.6597,-0.6608,-0.6609,-0.6604,-0.661,-0.6598,-0.6612,-0.6607,-0.6607,-0.6604,-0.6573,-0.6565,-0.6543,-0.6585,-0.6585,-0.6584,0,-0.656,-0.6562,-0.6551,-0.6558,-0.6557,-0.6553,-0.6554,-0.6553,-0.6557,-0.6561,-0.6562,-0.6571,-0.6566,-0.6579,-0.6571,-0.658,-0.6579,-0.6581,-0.6581,-0.658,-0.6593,-0.657,-0.6536,-0.6532,-0.658,-0.658,-0.6581,0,-0.6534,-0.6533,-0.6527,-0.6528,-0.6536,-0.6533,-0.6536,-0.6541,-0.654,-0.6541,-0.6541,-0.6541,-0.6541,-0.6541,-0.655,-0.6558,-0.654,-0.6554,-0.6543,-0.6542,-0.6537,-0.6537,-0.6501,-0.6539,-0.6539,-0.6539,-0.6539,0,-0.6508,-0.65,-0.6515,-0.651,-0.6502,-0.6514,-0.6506,-0.651,-0.6514,-0.6511,-0.6523,-0.6519,-0.6532,-0.6529,-0.6536,-0.6528,-0.6528,-0.6531,-0.6532,-0.6529,-0.6528,-0.6527,-0.6529,-0.6538,-0.6538,-0.6538,-0.6539,0,-0.6476,-0.6486,-0.6479,-0.6488,-0.649,-0.6483,-0.649,-0.6486,-0.6493,-0.6488,-0.6487,-0.6497,-0.6495,-0.6504,-0.6503,-0.6507,-0.6495,-0.65,-0.6493,-0.6494,-0.6482,-0.6482,-0.6443,-0.6437,-0.648,-0.6479,-0.6479,0,-0.6458,-0.6453,-0.6461,-0.646,-0.6462,-0.646,-0.646,-0.6471,-0.647,-0.6474,-0.6469,-0.6468,-0.6467,-0.6462,-0.6469,-0.6468,-0.6472,-0.6458,-0.6472,-0.6468,-0.647,-0.647,-0.6469,-0.6455,-0.6454,-0.6454,-0.6454,0,-0.6425,-0.643,-0.643,-0.643,-0.643,-0.6431,-0.6433,-0.6431,-0.6443,-0.6441,-0.6439,-0.6438,-0.6437,-0.6435,-0.6436,-0.6438,-0.6447,-0.645,-0.6447,-0.6442,-0.6438,-0.6439,-0.6484,-0.645,-0.645,-0.6451,-0.6451,-0.6451,-0.6399,-0.6395,-0.6399,-0.6398,-0.6401,-0.6402,-0.6399,-0.6405,-0.6403,-0.6403,-0.641,-0.6406,-0.641,-0.6411,-0.6413,-0.641,-0.6416,-0.6412,-0.6411,-0.6409,-0.6406,-0.644,-0.641,-0.641,-0.641,-0.641,-0.641,0,-0.6366,-0.637,-0.6368,-0.637,-0.6369,-0.6379,-0.6381,-0.6379,-0.6376,-0.6379,-0.6378,-0.6375,-0.6373,-0.6379,-0.6378,-0.6374,-0.6378,-0.6373,-0.6373,-0.6373,-0.6402,-0.6404,-0.637,-0.637,-0.637,-0.637,-0.637,-0.637,-0.6348,-0.6341,-0.6346,-0.634,-0.6344,-0.634,-0.6341,-0.6342,-0.6344,-0.634,-0.6338,-0.6343,-0.6347,-0.6346,-0.6344,-0.6346,-0.6344,-0.6338,-0.6341,-0.6367,-0.6371,-0.6375,-0.6377,-0.6338,-0.6338,-0.6312,-0.6312,-0.6312]},{"header":{"parameterUnit":"m.s-1","parameterCategory":1,"la1":30.2991,"la2":30.254,"lo1":-89.0895,"lo2":-89.0444,"dy":0.0017,"dx":0.0017,"nx":28,"ny":28,"refTime":"2025-11-15T09:00:00:Z","depth":0,"parameterNumber":3,"parameterNumberName":"V-component_of_WINDS"},"data":[0,0,0,0,0,0,0,0,0,0,0,0,0,0,0,0,0,0,0,0,0,0,0,0,0,0,0,0,0,0,0,0,0,0,0,0,0,0,0,0,0,0,0,0,0,0,0,0,0,0,0,0,0,0,0,0,0,0,-0.7518,-0.7518,0,-0.755,-0.7551,-0.7551,-0.7572,-0.7572,-0.7572,-0.7572,-0.7605,-0.7606,-0.7606,0,0,0,0,0,0,0,0,0,0,0,0,0,-0.7474,-0.7475,-0.7518,-0.7518,-0.7519,-0.755,-0.7551,-0.7551,-0.7572,-0.7572,-0.7572,-0.7572,-0.7605,-0.7606,-0.7607,0,0,0,0,0,0,0,0,0,0,0,0,0,-0.7499,-0.7475,-0.7518,-0.7533,-0.7535,-0.755,-0.7551,-0.7551,-0.7572,-0.7572,-0.7572,-0.7572,-0.7604,-0.7606,-0.7607,-0.761,0,0,-0.761,-0.7611,0,0,0,0,0,0,0,0,-0.7497,-0.75,-0.753,-0.7532,-0.7534,-0.7557,-0.7547,-0.7571,-0.7572,-0.7558,-0.7572,-0.7572,-0.7589,-0.7591,-0.7597,-0.7611,-0.7613,-0.761,-0.7611,-0.7611,-0.7612,0,0,0,0,0,0,0,-0.7496,-0.7499,-0.7531,-0.7531,-0.7533,-0.7538,-0.7542,-0.7552,-0.7572,-0.7559,-0.756,-0.7564,-0.759,-0.7596,-0.7598,-0.7613,-0.761,-0.7611,-0.7612,-0.7612,-0.7631,-0.7631,0,0,0,0,0,0,-0.7491,-0.7497,-0.753,-0.7532,-0.7516,-0.7539,-0.7543,-0.7549,-0.7572,-0.7575,-0.7564,-0.7565,-0.7594,-0.7597,-0.7599,-0.7604,-0.7611,-0.7612,-0.7613,-0.7631,-0.7631,-0.7631,0,0,0,0,0,0,-0.749,-0.7494,-0.7528,-0.7515,-0.752,-0.7539,-0.7547,-0.755,-0.7556,-0.7575,-0.7579,-0.7566,-0.7594,-0.7598,-0.7607,-0.7605,-0.7613,-0.7614,-0.7632,-0.7631,-0.7631,-0.7614,0,0,0,0,0,0,-0.7489,-0.7494,-0.7495,-0.7515,-0.752,-0.7536,-0.7547,-0.7551,-0.7558,-0.756,-0.7579,-0.7582,-0.7594,-0.7605,-0.7608,-0.7607,-0.7615,-0.7632,-0.7631,-0.7631,-0.7614,-0.7613,-0.7611,0,0,0,0,0,-0.7487,-0.7489,-0.7495,-0.7499,-0.7522,-0.7535,-0.7539,-0.7553,-0.7558,-0.7559,-0.7572,-0.7581,-0.7605,-0.7606,-0.7609,-0.7609,-0.7632,-0.7632,-0.7631,-0.7615,-0.7613,-0.7611,0,0,0,0,0,0,-0.7468,-0.7492,-0.7499,-0.7507,-0.7519,-0.7539,-0.7541,-0.7551,-0.7562,-0.7563,-0.758,-0.7584,-0.7592,-0.7601,-0.7602,-0.7613,-0.762,-0.762,-0.7606,-0.7604,-0.7603,-0.76,-0.7616,0,0,0,0,0,-0.7465,-0.7474,-0.7494,-0.7498,-0.7504,-0.7522,-0.7528,-0.7538,-0.7551,-0.7557,-0.757,-0.7582,-0.7593,-0.7599,-0.761,-0.7616,-0.762,-0.7617,-0.7616,-0.7614,-0.7614,-0.7618,-0.7617,-0.763,-0.763,-0.763,0,0,-0.7458,-0.7472,-0.7476,-0.7495,-0.7506,-0.7514,-0.7526,-0.7534,-0.7541,-0.7558,-0.7568,-0.7578,-0.7593,-0.7601,-0.7605,-0.7609,-0.7612,-0.7614,-0.7613,-0.7613,-0.7617,-0.7616,-0.7615,-0.7629,-0.763,-0.763,0,0,-0.745,-0.7461,-0.7467,-0.7477,-0.7493,-0.7505,-0.7506,-0.7525,-0.7532,-0.7542,-0.7555,-0.7563,-0.758,-0.7591,-0.7598,-0.7594,-0.7603,-0.7597,-0.7589,-0.7592,-0.7591,-0.759,-0.7588,-0.7588,-0.7597,-0.7597,-0.7597,0,-0.7439,-0.7453,-0.7468,-0.7476,-0.7484,-0.75,-0.7505,-0.7514,-0.7533,-0.7538,-0.7542,-0.7564,-0.7576,-0.7586,-0.7585,-0.7591,-0.7592,-0.7595,-0.759,-0.7589,-0.7589,-0.7587,-0.7587,-0.7596,-0.7596,-0.7596,-0.7596,0,-0.7439,-0.7448,-0.745,-0.7468,-0.7476,-0.7482,-0.7499,-0.7505,-0.7514,-0.7525,-0.7535,-0.7549,-0.7563,-0.7566,-0.7576,-0.7578,-0.758,-0.7587,-0.7594,-0.7586,-0.7585,-0.7585,-0.7594,-0.7595,-0.7595,-0.7595,0,0,-0.7419,-0.7445,-0.7446,-0.7454,-0.7473,-0.748,-0.7487,-0.7501,-0.7506,-0.7518,-0.7524,-0.7539,-0.7545,-0.7554,-0.7564,-0.7567,-0.7563,-0.7574,-0.7575,-0.7571,-0.7566,-0.756,-0.7559,-0.7569,-0.7569,-0.7569,-0.7564,0,-0.7414,-0.7427,-0.7442,-0.745,-0.7459,-0.7474,-0.748,-0.7492,-0.7503,-0.7512,-0.7523,-0.7533,-0.7541,-0.7546,-0.755,-0.7563,-0.7562,-0.7563,-0.7575,-0.7575,-0.757,-0.7559,-0.7553,-0.7548,-0.7564,-0.7564,-0.7564,0,-0.7409,-0.7421,-0.743,-0.7448,-0.7452,-0.7457,-0.7471,-0.7479,-0.7493,-0.7501,-0.751,-0.7521,-0.7529,-0.7536,-0.7547,-0.7548,-0.7554,-0.756,-0.7561,-0.7562,-0.7569,-0.7559,-0.7546,-0.7545,-0.7563,-0.7564,-0.7564,0,-0.7393,-0.7411,-0.7419,-0.7426,-0.7447,-0.7451,-0.746,-0.7474,-0.7481,-0.7493,-0.7497,-0.751,-0.7517,-0.7526,-0.754,-0.7544,-0.755,-0.7558,-0.7556,-0.7556,-0.7557,-0.7556,-0.7544,-0.7561,-0.7561,-0.7561,-0.7561,0,-0.7386,-0.7391,-0.7413,-0.7417,-0.7424,-0.744,-0.7445,-0.7456,-0.7468,-0.7476,-0.749,-0.7496,-0.7515,-0.7523,-0.7534,-0.7542,-0.7545,-0.7551,-0.7554,-0.7549,-0.7549,-0.7553,-0.7554,-0.756,-0.7561,-0.7561,-0.7561,0,-0.7369,-0.7384,-0.7394,-0.7413,-0.7418,-0.7422,-0.7438,-0.7443,-0.7455,-0.7464,-0.7467,-0.7484,-0.7495,-0.751,-0.7526,-0.7533,-0.7539,-0.7544,-0.7534,-0.7536,-0.7533,-0.7533,-0.7523,-0.7522,-0.754,-0.754,-0.7539,0,-0.7363,-0.7367,-0.7387,-0.7393,-0.7401,-0.741,-0.7418,-0.7434,-0.7441,-0.7457,-0.746,-0.7472,-0.7482,-0.7499,-0.7513,-0.7525,-0.753,-0.7526,-0.7532,-0.7527,-0.7529,-0.7529,-0.7529,-0.7524,-0.7524,-0.7523,-0.7523,0,-0.735,-0.7357,-0.7367,-0.738,-0.7388,-0.7399,-0.741,-0.7414,-0.7433,-0.744,-0.7451,-0.7459,-0.7475,-0.7486,-0.75,-0.7509,-0.7519,-0.7521,-0.7521,-0.7517,-0.7511,-0.7514,-0.753,-0.7521,-0.7522,-0.7522,-0.7522,-0.7522,-0.7338,-0.7343,-0.7357,-0.7368,-0.7378,-0.7388,-0.7394,-0.7406,-0.7416,-0.743,-0.7439,-0.745,-0.7464,-0.7483,-0.7492,-0.75,-0.7505,-0.7505,-0.7505,-0.7505,-0.7503,-0.751,-0.7503,-0.7503,-0.7503,-0.7503,-0.7503,0,-0.7326,-0.7336,-0.7346,-0.7361,-0.737,-0.7379,-0.7392,-0.7398,-0.7407,-0.7419,-0.7429,-0.7442,-0.7453,-0.7468,-0.748,-0.7484,-0.7489,-0.7487,-0.7487,-0.7489,-0.7499,-0.7497,-0.7483,-0.7483,-0.7483,-0.7483,-0.7483,-0.7483,-0.7321,-0.7329,-0.7337,-0.735,-0.7361,-0.7371,-0.7378,-0.7387,-0.7397,-0.7411,-0.742,-0.743,-0.7443,-0.7457,-0.7467,-0.7471,-0.7475,-0.7471,-0.7477,-0.7486,-0.7488,-0.749,-0.7488,-0.7472,-0.7472,-0.7466,-0.7466,-0.7466]}]]